GW0870 Weather Reports


time (UTC)temp
F
wind
direction
speed
knots
gust
knots
rain 1hr
in
rain 24hr
in
rain mn
in
humidity
%
barometer
mb
20260902123051 73 0 0.0 0.0 0.00 0.00 0.00 95 1019.8
20260902121601 72 0 0.0 0.0 0.00 0.00 0.00 94 1019.6
20260902120059 71 0 0.0 0.0 0.00 0.00 0.00 94 1019.5
20260902114554 71 0 0.0 0.0 0.00 0.00 0.00 94 1019.5
20260902113052 71 0 0.0 0.0 0.00 0.00 0.00 94 1019.3
20260902111601 71 0 0.0 0.0 0.00 0.00 0.00 94 1019.3
20260902110101 71 0 0.0 0.0 0.00 0.00 0.00 94 1019.3
20260902104615 71 0 0.0 0.0 0.00 0.00 0.00 93 1019.2
20260902103048 71 0 0.0 0.0 0.00 0.00 0.00 93 1019.1
20260902101555 71 0 0.0 0.0 0.00 0.00 0.00 93 1019.1
20260902100109 71 0 0.0 0.0 0.00 0.00 0.00 93 1018.9
20260902094555 71 0 0.0 0.0 0.00 0.00 0.00 94 1018.9
20260902093050 72 0 0.0 0.0 0.00 0.00 0.00 94 1018.9
20260902091552 72 0 0.0 0.9 0.00 0.00 0.00 94 1018.8
20260902084557 72 0 0.0 0.0 0.00 0.00 0.00 94 1018.7
20260902083106 72 0 0.0 0.0 0.00 0.00 0.00 94 1018.7
20260902081612 72 0 0.0 0.0 0.00 0.00 0.00 94 1018.6
20260902080100 72 0 0.0 0.0 0.00 0.00 0.00 94 1018.5
20260902074559 72 0 0.0 0.0 0.00 0.00 0.00 93 1018.5
20260902073050 72 0 0.0 0.0 0.00 0.00 0.00 94 1018.5
20260902071601 72 0 0.0 0.0 0.00 0.00 0.00 93 1018.5
20260902070059 72 0 0.0 0.0 0.00 0.00 0.00 93 1018.5
20260902064558 72 0 0.0 0.0 0.00 0.00 0.00 93 1018.6
20260902063113 72 0 0.0 0.0 0.00 0.00 0.00 93 1018.6
20260902061557 73 0 0.0 0.0 0.00 0.00 0.00 93 1018.5
20260902060126 73 0 0.0 0.0 0.00 0.00 0.00 93 1018.4
20260902054554 73 0 0.0 0.0 0.00 0.00 0.00 93 1018.3
20260902053051 73 0 0.0 0.0 0.00 0.00 0.00 93 1018.3
20260902051607 73 0 0.0 0.0 0.00 0.00 0.00 93 1018.4
20260902050055 73 0 0.0 0.0 0.00 0.00 0.00 92 1018.2
20260902044554 74 0 0.0 0.0 0.00 0.00 0.00 92 1018.2
20260902043101 74 0 0.0 0.0 0.00 0.00 0.00 92 1018.2
20260902041554 74 0 0.0 0.0 0.00 0.00 0.00 91 1018.3
20260902040056 74 0 0.0 0.0 0.00 0.00 0.00 91 1018.3
20260902034553 74 0 0.0 0.0 0.00 0.00 0.00 91 1018.2
20260902033106 75 0 0.0 0.0 0.00 0.00 0.00 91 1018.3
20260902031558 75 0 0.0 0.0 0.00 0.00 0.00 90 1018.1
20260902030056 75 0 0.0 0.0 0.00 0.00 0.00 90 1018.1
20260902024603 75 0 0.0 0.0 0.00 0.00 0.00 89 1018.1
20260902023059 76 0 0.0 0.0 0.00 0.00 0.00 89 1018.1
20260902021555 76 0 0.0 0.0 0.00 0.00 0.00 89 1018.1
20260902020141 76 0 0.0 0.0 0.00 0.00 0.00 88 1018.0
20260902014553 77 0 0.0 0.0 0.00 0.00 0.00 87 1017.8
20260902013056 77 0 0.0 0.0 0.00 0.00 0.00 87 1017.8
20260902011555 77 0 0.0 0.0 0.00 0.00 0.00 85 1017.6
20260902010052 78 0 0.0 0.0 0.00 0.00 0.00 84 1017.5
20260902004549 79 0 0.0 0.0 0.00 0.00 0.00 83 1017.4
20260902003104 80 0 0.0 0.0 0.00 0.00 0.00 81 1017.3
20260902001553 81 0 0.0 0.0 0.00 0.00 0.00 79 1017.3
20260902000055 83 0 0.0 0.0 0.00 0.00 0.00 77 1017.3
20260901234604 84 0 0.0 0.0 0.00 0.00 0.00 74 1017.4
20260901233052 87 0 0.0 0.0 0.00 0.00 0.00 71 1017.4
20260901231558 89 0 0.0 0.0 0.00 0.00 0.00 67 1017.5
20260901230056 91 0 0.0 0.0 0.00 0.00 0.00 62 1017.7
20260901224554 93 0 0.0 0.0 0.00 0.00 0.00 55 1017.7
20260901223101 95 0 0.0 1.7 0.00 0.00 0.00 48 1017.5
20260901221618 97 148 0.0 0.9 0.00 0.00 0.00 44 1017.6
20260901220107 99 0 0.0 0.9 0.00 0.00 0.00 41 1017.7
20260901214546 99 107 0.0 0.9 0.00 0.00 0.00 40 1017.7
20260901213103 98 96 0.0 1.7 0.00 0.00 0.00 41 1017.6
20260901211553 97 68 0.0 0.9 0.00 0.00 0.00 48 1017.6
20260901210052 96 326 0.0 1.7 0.00 0.00 0.00 47 1017.7
20260901204558 96 43 0.0 2.6 0.00 0.00 0.00 49 1017.7
20260901203101 97 0 0.0 2.6 0.00 0.00 0.00 48 1017.8
20260901201551 96 49 0.9 2.6 0.00 0.00 0.00 44 1017.8
20260901200059 96 249 0.9 4.3 0.00 0.00 0.00 44 1017.8
20260901194548 96 0 0.9 2.6 0.00 0.00 0.00 45 1018.0
20260901193108 97 296 0.0 2.6 0.00 0.00 0.00 47 1018.1
20260901191553 97 9 0.0 3.5 0.00 0.00 0.00 47 1018.3
20260901190049 97 20 0.0 1.7 0.00 0.00 0.00 48 1018.5
20260901184548 97 142 0.0 1.7 0.00 0.00 0.00 47 1018.6
20260901183057 96 281 0.0 3.5 0.00 0.00 0.00 52 1018.6
20260901181555 94 215 0.9 4.3 0.00 0.00 0.00 53 1018.7
20260901180054 94 136 0.9 3.5 0.00 0.00 0.00 51 1018.8
20260901174559 93 223 0.0 3.5 0.00 0.00 0.00 54 1018.9
20260901173050 94 22 0.0 4.3 0.00 0.00 0.00 55 1019.0
20260901171604 93 88 0.0 5.2 0.00 0.00 0.00 57 1019.1
20260901170104 93 236 0.0 0.9 0.00 0.00 0.00 57 1019.3
20260901164551 92 15 0.0 2.6 0.00 0.00 0.00 60 1019.5
20260901163104 91 0 0.9 5.2 0.00 0.00 0.00 61 1019.7
20260901161554 92 19 0.0 1.7 0.00 0.00 0.00 65 1019.8
20260901154551 89 134 0.9 3.5 0.00 0.00 0.00 62 1020.0
20260901153059 90 22 1.7 3.5 0.00 0.00 0.00 63 1020.2
20260901151558 89 0 0.0 0.9 0.00 0.00 0.00 68 1020.3
20260901150055 88 0 0.0 0.9 0.00 0.00 0.00 69 1020.5
20260901144552 87 0 0.0 2.6 0.00 0.00 0.00 71 1020.4
20260901143102 85 86 0.0 0.9 0.00 0.00 0.00 72 1020.5
20260901141559 85 26 0.0 1.7 0.00 0.00 0.00 74 1020.4
20260901140120 83 0 0.0 0.9 0.00 0.00 0.00 78 1020.5
20260901134611 82 0 0.0 0.9 0.00 0.00 0.00 82 1020.5
20260901133053 78 0 0.0 0.0 0.00 0.00 0.00 93 1020.3
20260901131600 75 0 0.0 0.0 0.00 0.00 0.00 95 1020.4
20260901130107 73 0 0.0 0.0 0.00 0.00 0.00 95 1020.3
20260901124605 72 0 0.0 0.0 0.00 0.00 0.00 96 1020.4